Overview Statistics Trail Chart Weather Telemetry Raw packets
 

This is the latest recevied weather packets stored in our database for station/object KQ7A. If no packets are shown the sender has not sent any weather packets the latest 10 day(s).

<< 42 43 44 45 46 47 48 >>
Time Temp. Humidity Pressure Rain* Wind** Luminosity Snow
1788393128 20.56° C 26% 1017.4 hPa 0 mm - 390 W/m² -
1788392827 20.56° C 25% 1017.3 hPa 0 mm - 400 W/m² -
1788392526 20° C 26% 1017.4 hPa 0 mm - 410 W/m² -
1788392221 20.56° C 27% 1017.4 hPa 0 mm - 432 W/m² -
1788391921 20.56° C 28% 1017.4 hPa 0 mm - 442 W/m² -
1788391620 20.56° C 27% 1017.4 hPa 0 mm - 462 W/m² -
1788391319 20.56° C 27% 1017.3 hPa 0 mm - 477 W/m² -
1788391014 21.11° C 28% 1017 hPa 0 mm - 485 W/m² -
1788390708 20.56° C 27% 1017.4 hPa 0 mm - 465 W/m² -
1788390404 20.56° C 27% 1017.1 hPa 0 mm - 482 W/m² -
1788390103 20.56° C 27% 1017 hPa 0 mm - 500 W/m² -
1788389798 20.56° C 26% 1017.1 hPa 0 mm - 522 W/m² -
1788389504 20.56° C 26% 1017.3 hPa 0 mm - 537 W/m² -
1788389196 21.11° C 26% 1017 hPa 0 mm - 560 W/m² -
1788388892 21.67° C 25% 1017.6 hPa 0 mm - 554 W/m² -
1788388588 21.11° C 26% 1017.3 hPa 0 mm - 564 W/m² -
1788388287 21.11° C 25% 1017.5 hPa 0 mm - 585 W/m² -
1788387986 21.11° C 26% 1016.9 hPa 0 mm - 593 W/m² -
1788387689 21.67° C 26% 1017.4 hPa 0 mm - 606 W/m² -
1788387379 21.11° C 26% 1017.5 hPa 0 mm - 601 W/m² -
1788387074 21.11° C 26% 1017.7 hPa 0 mm - 614 W/m² -
1788386770 21.11° C 27% 1017.3 hPa 0 mm - 618 W/m² -
1788386464 21.11° C 30% 1017.3 hPa 0 mm - 629 W/m² -
1788386161 21.67° C 26% 1017.1 hPa 0 mm - 642 W/m² -
1788385855 21.67° C 26% 1017.4 hPa 0 mm - 644 W/m² -

* Rain latest hour (hover to see other rain measurements)
** Current wind speed in m/s (hover to see current wind gust speed)